Regional Weather Roundup
Issued by NWS

Home | Current Version | Previous Version | Text Only | Print | Product List | Glossary Off
Versions: 1 2 3 4 5 6 7 8 9 10 11 12 13 14 15 16 17 18 19 20 21 22 23 24 25 26 27 28 29 30 31 32 33 34 35 36 37 38 39 40 41 42 43 44 45 46 47 48 49 50

099
ASUS45 KBOU 010807
RWRCO

WEATHER ROUNDUP FOR COLORADO
NATIONAL WEATHER SERVICE DENVER/BOULDER CO
200 AM MDT SUN MAY 01 2016

NOTE: "FAIR" INDICATES FEW OR NO CLOUDS BELOW 12000 FEET WITH NO
SIGNIFICANT WEATHER AND/OR OBSTRUCTIONS TO VISIBILITY.

COZ001>005-013-030-031-010900-
...NORTHWEST COLORADO...

CITY           SKY/WX    TMP DP  RH WIND       PRES   REMARKS
CRAIG          FAIR      34  23  64 E7        30.11S WCI  28
HAYDEN         FAIR      36  18  48 E10       30.11S
MEEKER         FAIR      36  23  59 NE14      30.04R
MOUNT WERNER   NOT AVBL
STEAMBOAT SPGS FAIR      34  17  51 N9G25     30.11R WCI  26
WALDEN         CLOUDY    28  19  69 N8        30.20S WCI  20
$$

COZ006>008-011-010900-
...WEST CENTRAL VALLEYS...

CITY           SKY/WX    TMP DP  RH WIND       PRES   REMARKS
GRAND JUNCTION FAIR      46  27  47 NW7       29.96R
MONTROSE       FAIR      35  29  78 S7        29.99S WCI  29
EAGLE          MOCLDY    36  28  75 SW7       30.11R
RIFLE          MOCLDY    39  31  72 CALM      30.02R
DELTA          NOT AVBL
NUCLA          NOT AVBL
$$

COZ017>023-064>068-010900-
...SOUTHWEST COLORADO...

CITY           SKY/WX    TMP DP  RH WIND       PRES   REMARKS
DURANGO        CLOUDY    36  31  82 CALM      29.95R
CORTEZ         MOCLDY    34  31  88 NE6       29.91S WCI  29
PAGOSA SPRINGS CLOUDY    38  31  76 CALM      29.99R
TELLURIDE      FAIR      31  28  86 CALM      29.99F
WOLF CREEK PAS SNOW      19  19 100 NE12      30.11R VSB 1/4 WCI   7
$$

COZ009-010-012-014-032>034-037-058>063-010900-
...CENTRAL COLORADO...

CITY           SKY/WX    TMP DP  RH WIND       PRES   REMARKS
ASPEN          CLOUDY    33  27  78 NW5       30.04R WCI  29
BUENA VISTA    CLOUDY    29  22  75 E3        30.17S
COPPER MTN     NOT AVBL
BERTHOUD PASS  CLOUDY     9   0  66 N6        30.12F WCI  -1
COTTONWOOD PAS CLOUDY    27  19  74 SE7       30.16R WCI  19
GUNNISON       CLOUDY    34  19  55 E18G25    30.07R WCI  23
KREMMLING      FAIR      30  21  69 NE3       30.16S
LEADVILLE      CLOUDY    19  17  92 S10       30.11R WCI   7
SALIDA         CLOUDY    32  25  76 E5        30.25S WCI  27
SUNLIGHT       CLOUDY   N/A N/A N/A NE6       30.09S
WILKERSON PASS LGT SNOW N/A N/A N/A NE7G18    30.16R
$$

COZ069>075-010900-
...SAN LUIS VALLEY/SANGRE DE CRISTO MOUNTAINS...

CITY           SKY/WX    TMP DP  RH WIND       PRES   REMARKS
ALAMOSA        CLOUDY    33  25  72 SE10      30.06S WCI  25
LA VETA PASS   SNOW      21  18  86 MISG      30.13S VSB 1/2
SAGUACHE       CLOUDY    34  21  60 NE7       30.08R WCI  28
$$

COZ035-036-038>040-010900-
...NORTHERN COLORADO FRONT RANGE...

CITY           SKY/WX    TMP DP  RH WIND       PRES   REMARKS
DENVER INTL AP LGT SNOW  34  28  79 N17       30.20F WCI  23
DMNS CITY PARK   N/A     35  30  79 N13G22    30.23S WCI  27
AURORA         CLOUDY    32  32 100 N15       30.21F WCI  22
FRONT RANGE AP NOT AVBL
ERIE MUNI ARPT CLOUDY    36  33  87 N10       30.23S
BOULDER MUN AP CLOUDY    36  32  87 NW5       30.23F
CENTENNIAL     FLURRIES  32  29  88 N16       30.20F WCI  21
BROOMFIELD     CLOUDY    34  32  93 N10       30.22F WCI  26
FORT COLLINS   CLOUDY    36  30  80 N13G18    30.24F
LONGMONT       CLOUDY    38  34  84 NW3       30.25S
$$

COZ041-046-047-076>085-087-088-010900-
...PIKES PEAK/PALMER DIVIDE AND SOUTHERN FOOTHILLS...

CITY           SKY/WX    TMP DP  RH WIND       PRES   REMARKS
COLO. SPRINGS  LGT SNOW  32  28  85 NW16G26   30.19R FOG     WCI  21
A. F. ACADEMY  MIX PCPN  32  27  80 NW17G25   30.17R WCI  21
SCHRIEVER AFB  NOT AVBL
ELLICOTT       NOT AVBL
FALCON         CLOUDY    30  26  87 N15G26    30.17R WCI  19
FORT CARSON    LGT RAIN  36  27  69 N17G26    30.17R
LIMON          CLOUDY    32  30  92 NW35G41   30.12S WCI  17
MONUMENT HILL  CLOUDY    28  27  93 N23G32    30.17F FOG     WCI  14
TRINIDAD       MOCLDY    33  28  81 N8        30.18S WCI  26
$$

COZ042>045-048>051-090-091-010900-
...NORTHEAST COLORADO...

CITY           SKY/WX    TMP DP  RH WIND       PRES   REMARKS
GREELEY ARPT   MOCLDY    36  30  80 N15       30.22F
AKRON          LGT SNOW  32  31  96 N23       30.14S FOG     WCI  19
BURLINGTON     CLOUDY    35  31  85 N22G28    30.07S WCI  23
WRAY           NOT AVBL
STERLING       LGT RAIN  36  34  93 N14       30.16S
HOLYOKE        NOT AVBL
FORT MORGAN    CLOUDY    35  32  89 N15       30.18S WCI  25
$$

COZ086-089-092>099-010900-
...SOUTHEAST COLORADO...

CITY           SKY/WX    TMP DP  RH WIND       PRES   REMARKS
PUEBLO         FAIR      37  28  70 NE7       30.17S
LA JUNTA       FAIR      37  31  78 NW12      30.17S
LAMAR          CLOUDY    41  33  73 NW15      30.12S
SPRINGFIELD      N/A     35  30  82 NW18G29   30.07F WCI  24
$$




USA.gov is the U.S. government's official web portal to all federal, state and local government web resources and services.